FW7772 Weather Reports


time (UTC)temp
C
wind
direction
speed
KPH
gust
KPH
rain 1hr
cm
rain 24hr
cm
rain mn
cm
humidity
%
barometer
mb
20260502231929 6 0 8.0 19.3 0.00 0.00 0.00 71 1010.8
20260502230929 7 3 4.8 12.9 0.00 0.00 0.00 71 1010.8
20260502225929 7 61 6.4 19.3 0.00 0.00 0.00 71 1010.7
20260502225407 7 62 4.8 14.5 0.00 0.00 0.00 71 1010.4
20260502223929 7 24 3.2 9.7 0.00 0.00 0.00 73 1010.2
20260502222930 8 106 6.4 14.5 0.00 0.00 0.00 72 1010.2
20260502221929 8 27 8.0 19.3 0.00 0.00 0.00 72 1010.0
20260502220929 8 23 11.3 25.7 0.00 0.00 0.00 72 1009.9
20260502215929 8 21 11.3 25.7 0.00 0.00 0.00 72 1009.6
20260502215842 9 2 9.7 24.1 0.00 0.00 0.00 72 1009.6
20260502213928 9 328 9.7 22.5 0.00 0.00 0.00 72 1009.4
20260502212928 9 349 11.3 30.6 0.00 0.00 0.00 72 1009.2
20260502211929 9 10 8.0 22.5 0.00 0.00 0.00 71 1009.1
20260502211402 9 34 3.2 6.4 0.00 0.00 0.00 71 1008.9
20260502210400 10 185 1.6 3.2 0.00 0.00 0.00 70 1008.6
20260502204926 10 185 0.0 0.0 0.00 0.00 0.00 69 1008.5
20260502204843 10 185 1.6 3.2 0.00 0.00 0.00 68 1008.5
20260502202926 10 185 1.6 4.8 0.00 0.00 0.00 69 1008.4
20260502202414 10 211 1.6 3.2 0.00 0.00 0.00 67 1008.3
20260502200923 10 280 3.2 8.0 0.00 0.00 0.00 66 1008.3
20260502195920 10 245 6.4 16.1 0.00 0.00 0.00 66 1008.2
20260502194921 10 245 9.7 19.3 0.00 0.00 0.00 66 1008.3
20260502193922 10 231 8.0 17.7 0.00 0.00 0.00 65 1008.2
20260502192920 11 258 4.8 11.3 0.00 0.00 0.00 66 1008.2
20260502192405 11 274 8.0 20.9 0.00 0.00 0.00 65 1008.1
20260502191407 11 231 6.4 16.1 0.00 0.00 0.00 65 1008.1
20260502185920 11 203 6.4 14.5 0.00 0.00 0.00 65 1008.2
20260502184921 11 254 8.0 16.1 0.00 0.00 0.00 65 1008.1
20260502183920 11 236 6.4 14.5 0.00 0.00 0.00 65 1008.2
20260502182915 11 237 4.8 11.3 0.00 0.00 0.00 63 1008.2
20260502181916 12 247 8.0 12.9 0.00 0.00 0.00 62 1008.3
20260502180914 12 241 9.7 19.3 0.00 0.00 0.00 61 1008.3
20260502163906 13 300 9.7 16.1 0.00 0.00 0.00 52 1008.0
20260502162906 14 266 9.7 17.7 0.00 0.00 0.00 49 1008.1
20260502161907 14 272 8.0 17.7 0.00 0.00 0.00 45 1008.2
20260502160906 14 300 11.3 22.5 0.00 0.00 0.00 44 1008.2
20260502151906 13 310 12.9 20.9 0.00 0.00 0.00 48 1008.7
20260502150906 14 325 12.9 17.7 0.00 0.00 0.00 50 1008.7
20260502122901 17 291 19.3 32.2 0.00 0.00 0.00 33 1008.6
20260502121901 17 310 16.1 30.6 0.00 0.00 0.00 33 1008.8
20260502120901 17 305 20.9 30.6 0.00 0.00 0.00 32 1008.8
20260502115901 18 270 20.9 37.0 0.00 0.00 0.00 31 1008.8
20260502114901 18 310 19.3 25.7 0.00 0.00 0.00 32 1008.8
20260502113901 18 305 16.1 25.7 0.00 0.00 0.00 30 1008.9
20260502112901 18 285 20.9 37.0 0.00 0.00 0.00 30 1008.9
20260502111900 19 258 19.3 30.6 0.00 0.00 0.00 29 1009.0
20260502110900 19 305 17.7 32.2 0.00 0.00 0.00 28 1009.1
20260502105902 18 277 12.9 29.0 0.00 0.00 0.00 30 1009.4
20260502104901 18 281 14.5 29.0 0.00 0.00 0.00 31 1009.4
20260502103901 17 266 19.3 33.8 0.00 0.00 0.00 32 1009.5
20260502102901 18 331 19.3 32.2 0.00 0.00 0.00 30 1009.2
20260502101901 19 242 14.5 32.2 0.00 0.00 0.00 29 1009.6
20260502100901 19 261 14.5 32.2 0.00 0.00 0.00 29 1009.7
20260502090901 17 258 9.7 27.4 0.00 0.00 0.00 34 1009.9
20260502070902 14 259 11.3 20.9 0.00 0.00 0.00 43 1011.1
20260502065833 13 273 9.7 22.5 0.00 0.00 0.00 43 1011.2
20260502064833 13 276 12.9 24.1 0.00 0.00 0.00 45 1011.1
20260502063833 13 249 11.3 20.9 0.00 0.00 0.00 48 1011.2
20260502063314 12 241 12.9 22.5 0.00 0.00 0.00 51 1011.3
20260502061833 11 300 11.3 20.9 0.00 0.00 0.00 53 1011.3
20260502060833 11 244 14.5 24.1 0.00 0.00 0.00 55 1011.5
20260502055834 11 260 12.9 20.9 0.00 0.00 0.00 58 1011.6
20260502054833 10 262 11.3 19.3 0.00 0.00 0.00 61 1011.7
20260502053833 10 222 12.9 24.1 0.00 0.00 0.00 63 1011.8
20260502052830 8 277 9.7 17.7 0.00 0.00 0.00 68 1011.7
20260502051831 8 231 9.7 17.7 0.00 0.00 0.00 72 1011.7
20260502050830 6 222 6.4 14.5 0.00 0.00 0.00 78 1011.6
20260502045832 6 245 4.8 9.7 0.00 0.00 0.00 82 1011.8
20260502045307 5 264 4.8 9.7 0.00 0.00 0.00 85 1011.7
20260502044308 3 300 6.4 17.7 0.00 0.00 0.00 87 1011.7
20260502043301 3 295 4.8 8.0 0.00 0.00 0.00 86 1011.9
20260502041829 2 276 3.2 4.8 0.00 0.00 0.00 85 1011.9
20260502040829 2 291 3.2 4.8 0.00 0.00 0.00 84 1011.9
20260502040746 2 270 4.8 6.4 0.00 0.00 0.00 83 1012.0
20260502034829 2 280 4.8 8.0 0.00 0.00 0.00 83 1012.1
20260502033829 2 324 3.2 6.4 0.00 0.00 0.00 82 1012.3
20260502032829 2 270 0.0 3.2 0.00 0.00 0.00 81 1012.4
20260502031830 2 277 3.2 4.8 0.00 0.00 0.00 80 1012.5
20260502030830 2 277 3.2 4.8 0.00 0.00 0.00 80 1012.5
20260502025828 3 266 3.2 4.8 0.00 0.00 0.00 79 1012.7
20260502024831 3 248 3.2 4.8 0.00 0.00 0.00 79 1012.8
20260502023829 3 289 4.8 6.4 0.00 0.00 0.00 78 1012.8
20260502022829 3 314 3.2 6.4 0.00 0.00 0.00 77 1012.8
20260502021829 3 288 6.4 12.9 0.00 0.00 0.00 77 1012.9
20260502020829 3 240 3.2 11.3 0.00 0.00 0.00 75 1012.8
20260502015829 4 294 1.6 4.8 0.00 0.00 0.00 74 1012.9
20260502014830 4 237 3.2 4.8 0.00 0.00 0.00 73 1013.1
20260502014316 5 314 3.2 6.4 0.00 0.00 0.00 72 1013.3
20260502012829 5 284 1.6 4.8 0.00 0.00 0.00 70 1013.4
20260502011829 6 226 1.6 3.2 0.00 0.00 0.00 69 1013.6
20260502010828 6 213 3.2 4.8 0.00 0.00 0.00 68 1013.6
20260502005829 7 287 3.2 6.4 0.00 0.00 0.00 65 1013.8
20260502004828 7 300 1.6 4.8 0.00 0.00 0.00 64 1013.8
20260502003828 8 300 1.6 4.8 0.00 0.00 0.00 63 1013.9
20260502002829 8 300 1.6 3.2 0.00 0.00 0.00 62 1014.0
20260502002315 9 300 3.2 4.8 0.00 0.00 0.00 60 1014.0
20260502000829 10 263 3.2 6.4 0.00 0.00 0.00 58 1014.0
20260501235829 10 254 0.0 3.2 0.00 0.00 0.00 56 1014.1
20260501234828 11 271 0.0 3.2 0.00 0.00 0.00 55 1014.2
20260501233828 11 261 3.2 9.7 0.00 0.00 0.00 53 1014.3
20260501232829 12 263 4.8 14.5 0.00 0.00 0.00 52 1014.2